Laconia, New Hampshire, United States (03246)
Lat: 43.53N, Lon: 71.47W
Wx Zone: NHZ009
Local Info
Past Weather Observations for Monday, September 19, 2016

NOTE: This archive is for the closest National Weather Service station to Laconia. Information may differ from the station used for current weather conditions.

Click here for Long-term Archive

Time Weather Temperature Dewpoint Humidity Pressure Winds Precip Visibility
23:56
Overcast
66°F / 19°C 66°F / 19°C 100% 30.12 in
(1020 mb)
Calm 0.01 in
(0.25 mm)
8SM
23:21
Overcast
66°F / 19°C 66°F / 19°C 100% 30.12 in
(1020 mb)
Calm - 7SM
22:56
Overcast
68°F / 20°C 66°F / 19°C 94% 30.12 in
(1020 mb)
Calm 0.00 in
(0.00 mm)
10SM
22:18
Overcast
68°F / 20°C 66°F / 19°C 94% 30.12 in
(1020 mb)
S 4.6 mph
(S 7 kph)
0.00 in
(0.00 mm)
10SM
21:56
Overcast
Light Rain
66°F / 19°C 66°F / 19°C 100% 30.12 in
(1020 mb)
Calm 0.00 in
(0.00 mm)
10SM
21:33
Overcast
66°F / 19°C 66°F / 19°C 100% 30.12 in
(1020 mb)
Calm 0.00 in
(0.00 mm)
10SM
20:46
Overcast
66°F / 19°C 66°F / 19°C 100% 30.12 in
(1020 mb)
Calm - 10SM
19:56
Overcast
66°F / 19°C 66°F / 19°C 100% 30.09 in
(1019 mb)
Calm - 10SM
18:56
Overcast
66°F / 19°C 66°F / 19°C 100% 30.09 in
(1019 mb)
Calm - 10SM
17:56
Overcast
70°F / 21°C 66°F / 19°C 88% 30.06 in
(1018 mb)
Calm - 10SM
16:56
Mostly Cloudy
70°F / 21°C 66°F / 19°C 88% 30.06 in
(1018 mb)
NE 3.5 mph
(NE 6 kph)
- 10SM
15:56
Overcast
70°F / 21°C 66°F / 19°C 88% 30.06 in
(1018 mb)
NE 3.5 mph
(NE 6 kph)
- 10SM
15:39
Overcast
70°F / 21°C 66°F / 19°C 88% 30.06 in
(1018 mb)
NE 3.5 mph
(NE 6 kph)
- 10SM
15:11
Overcast
70°F / 21°C 66°F / 19°C 88% 30.06 in
(1018 mb)
Variable 3.5 mph
(Variable 6 kph)
- 10SM
14:56
Overcast
70°F / 21°C 66°F / 19°C 88% 30.06 in
(1018 mb)
ENE 3.5 mph
(ENE 6 kph)
- 10SM
14:10
Overcast
70°F / 21°C 66°F / 19°C 88% 30.09 in
(1019 mb)
NE 3.5 mph
(NE 6 kph)
- 10SM
13:56
Overcast
70°F / 21°C 66°F / 19°C 88% 30.09 in
(1019 mb)
NE 3.5 mph
(NE 6 kph)
- 10SM
13:36
Overcast
70°F / 21°C 66°F / 19°C 88% 30.09 in
(1019 mb)
NE 3.5 mph
(NE 6 kph)
- 10SM
12:56
Overcast
68°F / 20°C 66°F / 19°C 94% 30.09 in
(1019 mb)
ENE 3.5 mph
(ENE 6 kph)
- 10SM
12:15
Overcast
68°F / 20°C 66°F / 19°C 94% 30.09 in
(1019 mb)
NE 3.5 mph
(NE 6 kph)
- 10SM
11:56
Overcast
70°F / 21°C 66°F / 19°C 88% 30.09 in
(1019 mb)
NE 3.5 mph
(NE 6 kph)
0.00 in
(0.00 mm)
10SM
11:46
Overcast
68°F / 20°C 66°F / 19°C 94% 30.09 in
(1019 mb)
ENE 3.5 mph
(ENE 6 kph)
0.00 in
(0.00 mm)
10SM
11:27
Overcast
68°F / 20°C 66°F / 19°C 94% 30.09 in
(1019 mb)
Calm 0.00 in
(0.00 mm)
10SM
11:10
Overcast
Light Rain
68°F / 20°C 64°F / 18°C 88% 30.09 in
(1019 mb)
Calm 0.00 in
(0.00 mm)
10SM
10:56
Overcast
68°F / 20°C 66°F / 19°C 94% 30.09 in
(1019 mb)
NW 3.5 mph
(NW 6 kph)
0.00 in
(0.00 mm)
10SM
10:37
Overcast
68°F / 20°C 66°F / 19°C 94% 30.09 in
(1019 mb)
Calm 0.00 in
(0.00 mm)
10SM
09:56
Overcast
Light Rain
68°F / 20°C 66°F / 19°C 94% 30.09 in
(1019 mb)
Calm 0.00 in
(0.00 mm)
10SM
09:17
Mostly Cloudy
66°F / 19°C 64°F / 18°C 94% 30.09 in
(1019 mb)
WNW 3.5 mph
(WNW 6 kph)
- 10SM
08:56
Partly Cloudy
66°F / 19°C 64°F / 18°C 94% 30.06 in
(1018 mb)
Calm 0.00 in
(0.00 mm)
10SM
07:56
Partly Cloudy
66°F / 19°C 64°F / 18°C 94% 30.06 in
(1018 mb)
N 3.5 mph
(N 6 kph)
0.00 in
(0.00 mm)
10SM
06:56
Overcast
Light Rain
64°F / 18°C 64°F / 18°C 100% 30.06 in
(1018 mb)
Calm 0.13 in
(3.30 mm)
10SM
05:56
Overcast
Rain
66°F / 19°C 64°F / 18°C 94% 30.09 in
(1019 mb)
Calm 0.16 in
(4.06 mm)
10SM
04:56
Overcast
Rain
66°F / 19°C 66°F / 19°C 100% 30.06 in
(1018 mb)
Calm 0.07 in
(1.78 mm)
2 1/2SM
04:19
Overcast
Light Rain
66°F / 19°C 66°F / 19°C 100% 30.06 in
(1018 mb)
Calm 0.03 in
(0.76 mm)
2SM
04:09
Overcast
Rain
66°F / 19°C 66°F / 19°C 100% 30.06 in
(1018 mb)
E 3.5 mph
(E 6 kph)
0.02 in
(0.51 mm)
1SM
03:56
Overcast
Light Rain
66°F / 19°C 66°F / 19°C 100% 30.06 in
(1018 mb)
Calm 0.19 in
(4.83 mm)
4SM
03:47
Overcast
Rain
66°F / 19°C 66°F / 19°C 100% 30.06 in
(1018 mb)
Calm 0.18 in
(4.57 mm)
4SM
03:11
Overcast
Rain
66°F / 19°C 66°F / 19°C 100% 30.06 in
(1018 mb)
Calm 0.06 in
(1.52 mm)
2 1/2SM
02:56
Overcast
Heavy Rain
66°F / 19°C 66°F / 19°C 100% 30.06 in
(1018 mb)
Calm 0.21 in
(5.33 mm)
4SM
02:54
Overcast
Heavy Rain
66°F / 19°C 66°F / 19°C 100% 30.06 in
(1018 mb)
Calm 0.19 in
(4.83 mm)
4SM
02:42
Overcast
Heavy Rain
66°F / 19°C 66°F / 19°C 100% 30.06 in
(1018 mb)
Calm 0.13 in
(3.30 mm)
5SM
01:56
Overcast
Fog And Mist
64°F / 18°C 64°F / 18°C 100% 30.04 in
(1017 mb)
Calm - 6SM
01:20
Mostly Cloudy
64°F / 18°C 64°F / 18°C 100% 30.04 in
(1017 mb)
Calm - 8SM
Time Weather Temperature Dewpoint Humidity Pressure Winds Precip Visibility


Weather for websites

WeatherForYou.com, LLC is not responsible for any damages or problems caused by this service. Current weather conditions are obtained from the closest station including government and personal stations which may have varying degrees of accuracy. Weather forecasts are derived from the NOAA NDFD. Like all things, this site belongs to Jesus Christ... He just trusts us to maintain it. If you have any questions or comments email webmaster@weatherforyou.com

Copyright © 2016, WeatherForYou.com LLC. All rights reserved.